Retour au catalogue

FALCON 9 DEB

ActifVLEO
NORAD 48609·DEBRIS·🇺🇸 United States

Lancé May 15, 2021 depuis Cape Canaveral Space Force Station

Loading…

Prochains Passages (prochaines 24 heures)

TLE

FraisSource: Space-Track

Époque: Sep 14, 2026, 10:22 UTC

1 48609U 21041BJ  26257.43218506  .00003070  00000-0  18786-3 0  9999
2 48609  53.0294  44.0755 0009792  39.3985 320.7717 15.13159473293001

Suivez FALCON 9 DEB en temps réel avec AllMySat

Download on the App Store